DW3795 Weather Reports


time (UTC)temp
C
wind
direction
speed
KPH
gust
KPH
rain 1hr
cm
rain 24hr
cm
rain mn
cm
humidity
%
barometer
mb
20260505093049 13 177 1.6 6.4 0.00 0.00 0.00 76 1014.8
20260505091549 13 201 0.0 12.9 0.00 0.00 0.00 76 1014.7
20260505090052 13 236 3.2 6.4 0.00 0.00 0.00 75 1014.6
20260505084545 13 187 3.2 9.7 0.00 0.00 0.00 75 1014.4
20260505083044 12 169 4.8 14.5 0.00 0.00 0.00 76 1014.5
20260505081547 12 248 3.2 8.0 0.00 0.00 0.00 75 1014.3
20260505080049 13 245 0.0 4.8 0.00 0.00 0.00 73 1014.4
20260505074535 13 202 0.0 1.6 0.00 0.00 0.00 71 1014.3
20260505073044 14 202 0.0 3.2 0.00 0.00 0.00 69 1014.2
20260505071529 15 198 0.0 4.8 0.00 0.00 0.00 68 1014.0
20260505070027 15 202 1.6 6.4 0.00 0.00 0.00 66 1013.9
20260505064524 15 253 1.6 6.4 0.00 0.00 0.00 64 1014.0
20260505063023 16 205 1.6 6.4 0.00 0.00 0.00 62 1013.9
20260505061523 16 183 0.0 6.4 0.00 0.00 0.00 61 1013.8
20260505060027 16 206 3.2 12.9 0.00 0.00 0.00 59 1013.9
20260505054523 16 185 4.8 14.5 0.00 0.00 0.00 59 1013.9
20260505053021 16 179 3.2 17.7 0.00 0.00 0.00 59 1013.8
20260505051523 16 169 3.2 11.3 0.00 0.00 0.00 59 1013.9
20260505041521 16 220 1.6 6.4 0.00 0.00 0.00 61 1013.8
20260505040011 15 275 3.2 9.7 0.00 0.00 0.00 60 1013.7
20260505034510 15 230 3.2 6.4 0.00 0.00 0.00 63 1013.8
20260505033008 15 228 3.2 9.7 0.00 0.00 0.00 64 1013.7
20260505031507 15 226 1.6 6.4 0.00 0.00 0.00 66 1013.6
20260505030008 15 197 1.6 6.4 0.00 0.00 0.00 66 1013.7
20260505024506 15 213 0.0 4.8 0.00 0.00 0.00 65 1013.7
20260505023005 16 214 0.0 4.8 0.00 0.00 0.00 64 1013.6
20260505021507 16 208 0.0 1.6 0.00 0.00 0.00 62 1013.6
20260505020004 17 208 0.0 4.8 0.00 0.00 0.00 61 1013.6
20260505014504 17 207 0.0 4.8 0.00 0.00 0.00 60 1013.6
20260505013002 18 206 0.0 4.8 0.00 0.00 0.00 59 1013.3
20260505011502 18 231 1.6 4.8 0.00 0.00 0.00 57 1013.2
20260505010002 20 229 0.0 3.2 0.00 0.00 0.00 54 1012.9
20260505004503 21 230 0.0 1.6 0.00 0.00 0.00 53 1012.9
20260505003101 21 230 0.0 1.6 0.00 0.00 0.00 50 1012.8
20260505001632 22 230 0.0 3.2 0.00 0.00 0.00 49 1012.8
20260505000138 23 231 1.6 6.4 0.00 0.00 0.00 47 1012.8
20260504234614 23 154 3.2 8.0 0.00 0.00 0.00 43 1012.6
20260504233107 23 198 3.2 9.7 0.00 0.00 0.00 43 1012.3
20260504231558 24 192 4.8 14.5 0.00 0.00 0.00 42 1012.3
20260504230059 24 219 1.6 12.9 0.00 0.00 0.00 43 1012.3
20260504224609 25 181 3.2 11.3 0.00 0.00 0.00 41 1012.4
20260504223055 25 230 8.0 17.7 0.00 0.00 0.00 40 1012.4
20260504221556 25 167 8.0 14.5 0.00 0.00 0.00 40 1012.6
20260504220058 25 346 3.2 14.5 0.00 0.00 0.00 40 1012.5
20260504214553 26 148 6.4 17.7 0.00 0.00 0.00 39 1012.5
20260504213124 26 42 1.6 17.7 0.00 0.00 0.00 39 1012.5
20260504211555 26 170 3.2 16.1 0.00 0.00 0.00 40 1012.6
20260504210052 26 252 3.2 14.5 0.00 0.00 0.00 38 1012.5
20260504204555 27 212 8.0 20.9 0.00 0.00 0.00 38 1012.5
20260504203104 27 171 4.8 16.1 0.00 0.00 0.00 37 1012.8
20260504201548 27 222 3.2 14.5 0.00 0.00 0.00 36 1012.9
20260504200050 27 230 8.0 17.7 0.00 0.00 0.00 36 1013.1
20260504194558 27 163 3.2 17.7 0.00 0.00 0.00 35 1013.1
20260504193051 26 245 3.2 16.1 0.00 0.00 0.00 36 1013.4
20260504191540 26 184 9.7 24.1 0.00 0.00 0.00 36 1013.8
20260504190041 26 133 4.8 16.1 0.00 0.00 0.00 36 1014.1
20260504184536 26 15 4.8 16.1 0.00 0.00 0.00 36 1014.2
20260504183035 26 181 8.0 16.1 0.00 0.00 0.00 36 1014.4
20260504181532 26 194 3.2 12.9 0.00 0.00 0.00 36 1014.5
20260504180031 25 202 6.4 14.5 0.00 0.00 0.00 36 1014.4
20260504174529 25 218 8.0 16.1 0.00 0.00 0.00 35 1014.7
20260504173036 25 123 6.4 14.5 0.00 0.00 0.00 36 1014.6
20260504171525 25 213 4.8 11.3 0.00 0.00 0.00 36 1014.8
20260504110116 2 10 0.0 1.6 0.00 0.00 0.00 90 1017.4